Weather Service Report


803 
ASUS42 KFFC 272210
RWRGA 
WEATHER ROUNDUP FOR GEORGIA
NATIONAL WEATHER SERVICE PEACHTREE CITY GA
600 PM EDT TUE JUN 27 2017

NOTE: "FAIR" INDICATES FEW OR NO CLOUDS BELOW 12,000 FEET WITH NO
SIGNIFICANT WEATHER AND/OR OBSTRUCTIONS TO VISIBILITY. 

* = USE WITH CAUTION. THE STATIONS MARKED WITH AN ASTERISK MAY NOT
REPORT WEATHER SUCH AS PRECIPITATION, FOG, OR THUNDER AND ARE NOT 
QUALITY CONTROLLED BY NWS.

THE REMARK "TC" DENOTES TEMPERATURE READING IN DEGREES CELSIUS.

GAZ001>058-272300-
NORTH GEORGIA
  
CITY           SKY/WX    TMP DP  RH WIND       PRES   REMARKS
ATLANTA        MOSUNNY   84  53  34 NW10      30.05S                  
ATHENS         MOSUNNY   87  55  33 VRB3      30.03F                  
CHAMBLEE       MOSUNNY   85  56  37 N10       30.04F                  
PEACHTREE CITY SUNNY     85  56  37 N10       30.04F                  
ROME           SUNNY     83  56  39 NE8       30.05F                  
WEST ATLANTA   SUNNY     85  57  38 N6        30.04F                  
GAINESVILLE    SUNNY     83  51  33 N8        30.07F                  
CARTERSVILLE   SUNNY     82  57  42 N12       30.06F                  

  
CITY           SKY/WX    TMP DP  RH WIND       PRES   REMARKS
DALTON*        SUNNY     79  54  41 N9        30.07F                  
LAWRENCEVILLE* MOSUNNY   84  55  37 NW7       30.06S                  
KENNESAW*      MOSUNNY   84  54  34 NW8       30.03S                  
CANTON*        SUNNY     82  54  36 NW6       30.08S                  
$$

GAZ059>098-102>109-272300-
CENTRAL GEORGIA
  
CITY           SKY/WX    TMP DP  RH WIND       PRES   REMARKS
AUGUSTA-BUSH   PTSUNNY   87  62  43 E7        29.99F                  
AUGUSTA-DANIEL CLOUDY    88  54  31 NW8       30.01F                  
COLUMBUS       CLOUDY    87  59  38 E6        30.01F                  
MACON          CLOUDY    85  61  44 NE7       30.01F                  
ROBINS AFB     CLOUDY    83  66  57 NE3       30.01S                  

  
CITY           SKY/WX    TMP DP  RH WIND       PRES   REMARKS
LAGRANGE*      CLOUDY    86  61  42 N8        30.03F                  
SYLVANIA*      CLOUDY    86  69  57 E3        30.02S HX  90           
MILLEDGEVILLE* CLOUDY    86  64  48 E6        30.01F                  
$$

GAZ099>101-110>166-272300-
SOUTH GEORGIA
  
CITY           SKY/WX    TMP DP  RH WIND       PRES   REMARKS
SAVANNAH       PTSUNNY   81  68  64 SE12      30.01F                  
VALDOSTA       CLOUDY    74  72  93 SW5       29.97F                  
ALMA           PTSUNNY   89  68  49 VRB6      29.99R HX  93           
ST SIMONS      LGT RAIN  77  68  73 N8        30.00F                  
ALBANY         CLOUDY    84  66  54 N7        30.01F                  
HUNTER AFB     PTSUNNY   80  70  72 SE8       29.98                   
MOODY AFB      MOSUNNY   82  73  74 W5        29.95F                  
BRUNSWICK      CLOUDY    73  72  94 E6        30.01F                  

  
CITY           SKY/WX    TMP DP  RH WIND       PRES   REMARKS
BAINBRIDGE*    MOSUNNY   84  70  61 N8        29.98F                  
MOULTRIE*      CLOUDY    82  70  65 N7        29.99F                  
VIDALIA*       CLOUDY    82  66  57 NE5       30.01F                  
WAYCROSS*      TSTM      78  78 100 E8        30.00S                  
DOUGLAS*       MOSUNNY   84  64  51 N9        30.00S                  
$$
  

Return to Home page


Western Regional Climate Center, wrcc@dri.edu